Volver al catálogo

OPS 9442 (DSCS 2-12) DEB

ActivoMEO
NORAD 59991·DEBRIS·🇺🇸 United States

Lanzado Dec 14, 1978 desde Cape Canaveral Space Force Station

Loading…

Próximos Pases (próximas 24 horas)

TLE

ActualizadoSource: Space-Track

Época: Sep 5, 2026, 15:15 UTC

1 59991U 78113G   26248.63564263 -.00000088  00000-0  00000+0 0  9996
2 59991   7.9497 302.7924 0155327 146.2261 325.5174  0.98452716 44987

Sigue OPS 9442 (DSCS 2-12) DEB en tiempo real con AllMySat

Download on the App Store